COSMOS 2251 DEB, 40793

Orbit data source: Space-Track

COSMOS 2251 DEB, 40793 is space debris in LEO originally from a launch on Wed, 16 Jun 1993 UTC launched from the Plesetsk Missile And Space Complex (PKMTR). The debris from Iridium 33, an American commercial communications satellite, has been tracked extensively since its accidental collision with the defunct Russian satellite Cosmos 2251 in 2009. This event, occurring at high speed in low Earth orbit (LEO), generated thousands of pieces of space debris, significantly increasing the risk of further collisions. The Iridium 33 debris cloud has impacted space traffic management and orbital debris mitigation strategies, making it a subject of ongoing study in space situational awareness.

Loading next visibility...
Identifier
40793, 1993-036BVW
Orbit
LEO
Country
Flag of CISCIS
Related business
Manufacturer
Unknown
Mission
Spacecraft
Bus & Motor
Unknown
Mass
Unknown
Launch date (UTC)
1993-06-16 (33 years ago)
Launch vehicle
Unknown
Launch site
Plesetsk Missile And Space Complex (PKMTR)
Object type
Payload
Rocket body
Debris
Shape & HBR
Unknown shape, 0.1 m
Radar Cross Section
Small (<0.1 m²)

Expand to show TLE details & history
Last TLE update: 1 day ago

TLE from 1 day ago
0 COSMOS 2251 DEB
1 40793U 93036BVW 26256.69869192  .00000578  00000-0  29676-3 0  9998
2 40793  73.9796  42.3389 0212832 138.5037 223.2484 14.06388080721104
Epoch: 2026-09-13T16:46Z
TLE epoch observation values (Epoch: 2026-09-13T16:46:06.981Z)
Latitude
0.00002°
Longitude
158.12022°
Altitude
988.25 km
Speed
7.3 km/s
True Right ascension
02h 49m 21s
True Declination
0° 00' 00"
Sunlit
Object was in full shadow at epoch
Visualization orbit readout
Latitude
Unknown
Longitude
Unknown
Altitude
Unknown
Speed
Unknown
Apparent Right ascension
Unknown
Apparent Declination
Unknown
Sunlit
N/A
Visualization observer readout
Local Sidereal Time
10:33:07
Azimuth
Unknown
Elevation
Unknown
Doppler factor
Unknown
Orbital elements
Apogee altitude
1,023.669 km
Perigee altitude
715.167 km
Semi-major axis
7,247.555 km
Eccentricity
0.02128
Inclination
73.9796°
RAAN
42.3389°
Arg. of periapsis
138.5037°
True anomaly
221.60939°
Mean anomaly
223.2484°
Eccentric anomaly
222.42573°
Mean motion
3.51768 °/min
Orbital period
102.34 mins
BSTAR
0.00029676

Documentation

Showing up to 5 results
|